Content
SEND FEEDBACK

Daily
Averages
Monthly
Summary
United States of America

ARTESIA, NEW MEXICO


Home > North America > United States > New Mexico
Elevation: 3532 feet     Latitude: 32 51N     Longitude: 104 28W

WEATHER
 
SELECT A DAY
Number of Records: 426,021;   Date Range: 8/5/97 - 12/17/14
 
SHARE

PRINT THIS DATA

[ ← Previous Day ]
WEATHER ALMANAC - JANUARY 31, 2013
[ Next Day → ]
[ °C ]   °F
Weather ElementAverageHighLow
Temperature44.8 °F62.6 °F (1:55 pm)26.6 °F (1:15 am)
Dewpoint11.7 °F17.6 °F (9:55 am)5 °F (5:15 am)
Humidity27.9 %44 % (11:55 pm)14 % (2:35 pm)
Barometer30.18 in30.24 in (9:55 am)30.14 in (12:35 am)
Wind Speed7.7 mph15 mph (4:15 am)
Wind Gust18.4 mph (12:55 pm)
Weather ElementAverage
Visibility10 mi
Wind DirectionSSW (216.5 °)

Weather ElementTotal
Precipitation---
Heating Degree Days20.4 (Base 65)
Averaged from 69 records on January 31, 2013
WEATHER CONDITIONS BREAKOUT
WIND DIRECTION BREAKOUT
WEATHER BY HOUR - JANUARY 31, 2013
[ °C ]   °F
Local TimeTemperatureDewpointHumidityBarometerVisibilityWind DirectionWind SpeedGust SpeedPrecipitationEventsConditions
12:35 AM30.2 °F6.8 °F37 %30.14 in10.0 miSSE (150°)4.6 mphClear
12:55 AM28.4 °F6.8 °F40 %30.14 in10.0 miSSE (160°)3.5 mphClear
1:15 AM26.6 °F6.8 °F43 %30.15 in10.0 miCalmClear
1:35 AM26.6 °F6.8 °F43 %30.16 in10.0 miSouth (190°)3.5 mphClear
1:55 AM26.6 °F6.8 °F43 %30.17 in10.0 miWSW (240°)4.6 mphClear
2:15 AM26.6 °F6.8 °F43 %30.16 in10.0 miWSW (240°)11.5 mphClear
2:35 AM30.2 °F6.8 °F37 %30.16 in10.0 miWSW (250°)10.4 mphClear
2:55 AM32.0 °F8.6 °F38 %30.16 in10.0 miWest (260°)11.5 mphClear
3:15 AM32.0 °F6.8 °F35 %30.16 in10.0 miWest (260°)12.7 mphClear
3:35 AM32.0 °F6.8 °F35 %30.15 in10.0 miWest (260°)10.4 mphClear
3:55 AM32.0 °F8.6 °F38 %30.15 in10.0 miWest (260°)12.7 mphClear
4:15 AM32.0 °F6.8 °F35 %30.16 in10.0 miWest (270°)15.0 mphClear
4:35 AM35.6 °F6.8 °F30 %30.15 in10.0 miWest (270°)15.0 mphClear
4:55 AM35.6 °F6.8 °F30 %30.15 in10.0 miWest (270°)15.0 mphClear
5:15 AM33.8 °F5.0 °F30 %30.16 in10.0 miWest (260°)13.8 mphClear
5:55 AM35.6 °F5.0 °F28 %30.16 in10.0 miWSW (250°)12.7 mphClear
6:15 AM32.0 °F5.0 °F32 %30.17 in10.0 miWSW (250°)13.8 mphClear
6:35 AM33.8 °F6.8 °F32 %30.17 in10.0 miWest (260°)15.0 mphClear
6:55 AM32.0 °F6.8 °F35 %30.18 in10.0 miWest (260°)13.8 mphClear
7:15 AM33.8 °F6.8 °F32 %30.18 in10.0 miWest (260°)11.5 mphClear
7:35 AM35.6 °F6.8 °F30 %30.20 in10.0 miWSW (250°)12.7 mphClear
7:55 AM37.4 °F8.6 °F30 %30.20 in10.0 miWSW (250°)9.2 mphClear
8:15 AM39.2 °F8.6 °F28 %30.21 in10.0 miWest (280°)10.4 mphClear
8:35 AM41.0 °F10.4 °F29 %30.22 in10.0 miWNW (290°)8.1 mphClear
8:55 AM44.6 °F14.0 °F29 %30.23 in10.0 miEast (80°)3.5 mphClear
9:15 AM46.4 °F14.0 °F27 %30.23 in10.0 miWNW (300°)3.5 mphClear
9:35 AM50.0 °F15.8 °F26 %30.23 in10.0 miNW (320°)6.9 mphClear
9:55 AM51.8 °F17.6 °F26 %30.24 in10.0 miNNW (330°)8.1 mphClear
10:15 AM53.6 °F17.6 °F24 %30.24 in10.0 miNNW (330°)9.2 mphClear
10:35 AM51.8 °F17.6 °F26 %30.23 in10.0 miNorth (10°)5.8 mphClear
10:55 AM53.6 °F17.6 °F24 %30.22 in10.0 miCalmClear
11:15 AM55.4 °F17.6 °F23 %30.21 in10.0 miENE (70°)4.6 mphClear
11:35 AM55.4 °F14.0 °F20 %30.20 in10.0 miNW (320°)5.8 mphClear
11:55 AM57.2 °F15.8 °F20 %30.18 in10.0 miNNE (30°)4.6 mphClear
12:15 PM59.0 °F15.8 °F19 %30.18 in10.0 miNorth (360°)12.7 mph17.3 mphClear
12:35 PM59.0 °F15.8 °F19 %30.18 in10.0 miNorth (360°)10.4 mphClear
12:55 PM59.0 °F15.8 °F19 %30.17 in10.0 miNorth (360°)11.5 mph18.4 mphClear
1:15 PM59.0 °F15.8 °F19 %30.15 in10.0 miNW (320°)6.9 mphClear
1:35 PM60.8 °F14.0 °F16 %30.16 in10.0 miNNW (340°)3.5 mphClear
1:55 PM62.6 °F14.0 °F15 %30.15 in10.0 miSW (220°)5.8 mphClear
2:15 PM62.6 °F14.0 °F15 %30.16 in10.0 miWSW (250°)9.2 mphClear
2:35 PM62.6 °F12.2 °F14 %30.15 in10.0 miNNW (340°)6.9 mphClear
2:55 PM62.6 °F12.2 °F14 %30.15 in10.0 miNorth (350°)8.1 mphClear
3:15 PM62.6 °F12.2 °F14 %30.14 in10.0 miNW (320°)8.1 mphClear
3:35 PM62.6 °F12.2 °F14 %30.15 in10.0 miNorth (350°)6.9 mphClear
3:55 PM62.6 °F12.2 °F14 %30.14 in10.0 miNNW (340°)6.9 mphClear
4:15 PM62.6 °F12.2 °F14 %30.15 in10.0 miWNW (290°)4.6 mphClear
4:35 PM60.8 °F12.2 °F15 %30.15 in10.0 miCalmClear
4:55 PM59.0 °F14.0 °F17 %30.16 in10.0 miSSW (210°)5.8 mphClear
5:15 PM55.4 °F14.0 °F20 %30.17 in10.0 miSSW (200°)4.6 mphClear
5:35 PM53.6 °F14.0 °F21 %30.17 in10.0 miSSW (210°)9.2 mphClear
5:55 PM50.0 °F14.0 °F24 %30.17 in10.0 miSW (220°)8.1 mphClear
6:15 PM48.2 °F14.0 °F25 %30.18 in10.0 miWSW (240°)8.1 mphClear
6:35 PM46.4 °F14.0 °F27 %30.18 in10.0 miWSW (240°)6.9 mphClear
7:15 PM48.2 °F12.2 °F24 %30.18 in10.0 miCalmClear
7:35 PM42.8 °F14.0 °F31 %30.19 in10.0 miSSW (210°)6.9 mphClear
7:55 PM44.6 °F12.2 °F27 %30.20 in10.0 miSW (220°)9.2 mphClear
8:15 PM42.8 °F12.2 °F29 %30.21 in10.0 miSW (230°)10.4 mphClear
8:35 PM42.8 °F12.2 °F29 %30.22 in10.0 miWSW (240°)10.4 mphClear
8:55 PM42.8 °F12.2 °F29 %30.22 in10.0 miSW (230°)9.2 mphClear
9:15 PM42.8 °F14.0 °F31 %30.22 in10.0 miWSW (240°)9.2 mphClear
9:35 PM41.0 °F14.0 °F33 %30.22 in10.0 miWSW (240°)9.2 mphClear
9:55 PM41.0 °F14.0 °F33 %30.22 in10.0 miSW (230°)5.8 mphClear
10:15 PM41.0 °F14.0 °F33 %30.22 in10.0 miCalmClear
10:35 PM39.2 °F14.0 °F36 %30.23 in10.0 miNE (40°)4.6 mphClear
10:55 PM39.2 °F14.0 °F36 %30.24 in10.0 miNE (40°)3.5 mphClear
11:15 PM37.4 °F14.0 °F38 %30.23 in10.0 miCalmClear
11:35 PM37.4 °F14.0 °F38 %30.23 in10.0 miNNE (20°)4.6 mphClear
11:55 PM33.8 °F14.0 °F44 %30.23 in10.0 miCalmClear
Hourly data recorded from KATS, located miles away from Artesia, New Mexico







STORIES FROM OUR PARTNERS